FENGYUN 1C DEB, 29740

Orbit data source: Space-Track

FENGYUN 1C DEB, 29740 is space debris in SSO originally from a launch on Mon, 10 May 1999 UTC launched from the Taiyaun Space Center, China (TSC). Fengyun 1C debris stems from the Chinese weather satellite Fengyun-1C, which was intentionally destroyed by a Chinese anti-satellite missile in 2007. This event dramatically increased the amount of space debris, with thousands of trackable fragments posing hazards to satellites and human spaceflight. The Fengyun 1C debris cloud has become a focal point in discussions about space sustainability and the need for international regulations to prevent the creation of new debris.

Loading next visibility...
Identifier
29740, 1999-025AE
Orbit
SSO
Country
Flag of CNCN / PRC
Related business
Manufacturer
Unknown
Mission
Spacecraft
Bus & Motor
Unknown
Mass
Unknown
Launch date (UTC)
1999-05-10 (27 years ago)
Launch vehicle
Unknown
Launch site
Taiyaun Space Center, China (TSC)
Object type
Payload
Rocket body
Debris
Shape & HBR
Unknown shape, 0.1 m
Radar Cross Section
Medium (>0.1 m² and <1 m²)

Expand to show TLE details & history
Last TLE update: 1 day ago

TLE from 1 day ago
0 FENGYUN 1C DEB
1 29740U 99025AE  26206.35494032  .00000859  00000-0  22430-2 0  9998
2 29740  99.0631 359.0213 0977799 110.4278 260.4433 12.08709994856488
Epoch: 2026-07-25T08:31Z
TLE epoch observation values (Epoch: 2026-07-25T08:31:06.843Z)
Latitude
-0.00008°
Longitude
-71.82562°
Altitude
1,847.35 km
Speed
6.874 km/s
True Right ascension
23h 56m 05s
True Declination
0° 00' 00"
Sunlit
Object was in daylight at epoch
Visualization orbit readout
Latitude
Unknown
Longitude
Unknown
Altitude
Unknown
Speed
Unknown
Apparent Right ascension
Unknown
Apparent Declination
Unknown
Sunlit
N/A
Visualization observer readout
Local Sidereal Time
00:11:11
Azimuth
Unknown
Elevation
Unknown
Doppler factor
Unknown
Orbital elements
Apogee altitude
2,423.492 km
Perigee altitude
855.559 km
Semi-major axis
8,017.662 km
Eccentricity
0.09778
Inclination
99.0631°
RAAN
359.0213°
Arg. of periapsis
110.4278°
True anomaly
249.67749°
Mean anomaly
260.4433°
Eccentric anomaly
255.03104°
Mean motion
3.02323 °/min
Orbital period
119.08 mins
BSTAR
0.002243
Loading maneuver chart data...
Computing Atmospheric mass density...

Documentation

Showing up to 5 results
|